Location: Góry Miechowskie
(50.3599°N, 20.1803°E)
Time: 14:58:07
(UTC+00:00)

A-11 Canister half - Pass Details

Date: 14 September 2024
Orbit: 1515 x 1684 km, 47.2° (Epoch: 07 October)

Event Time Altitude Azimuth Distance (km) Brightness Sun altitude
Rises 16:47:13 0° 211° (SSW) 4,733 12.0 0.3°
Reaches altitude 10° 16:50:38 10° 203° (SSW) 3,730 11.3 -0.2°
Maximum altitude 16:58:48 35° 142° (SE) 2,267 9.6 -1.5°
Drops below altitude 10° 17:06:51 10° 81° (E) 3,679 10.4 -2.8°
Sets 17:10:11 0° 73° (ENE) 4,662 11.0 -3.3°
